BREEZE-M DEB (TANK), 37845

Orbit data source: Space-Track

BREEZE-M DEB (TANK), 37845 is space debris originally from a launch on Wed, 19 Oct 2011 UTC launched from the Tyuratam Missile And Space Complex (TTMTR). Debris objects in space refer to the collection of defunct objects orbiting the Earth. Examples of debris include non-operational satellites, rocket bodies, and fragments generated from explosions, collisions, or faulty payload assembly.

Loading next visibility...
Identifier
37845, 2011-059C
Orbit
Active
Country
Flag of CISCIS
Related business
Manufacturer
Khrunichev
Mission
Spacecraft
Bus & Motor
BRIZ TANK, Unknown motor
Mass
~1,000 kg wet, 1,000 kg dry
Launch date (UTC)
2011-10-19 (14 years ago)
Launch vehicle
Unknown
Launch site
Tyuratam Missile And Space Complex (TTMTR)
Object type
Payload
Rocket body
Debris
Shape & HBR
Torus, 2.0 m
Radar Cross Section
8.218 m², Large (>1 m²)

Expand to show TLE details & history
Last TLE update: 23 hours ago

TLE from 23 hours ago
0 BREEZE-M DEB (TANK)
1 37845U 11059C   25354.66064686  .00002238  00000-0  38260-3 0  9991
2 37845  49.6829 128.9572 4509865  79.4711 326.8359  6.44393815324476
Epoch: 2025-12-20T15:51Z
TLE epoch observation values (Epoch: 2025-12-20T15:51:19.888Z)
Latitude
0.00001°
Longitude
161.64009°
Altitude
2,593.923 km
Speed
7.496 km/s
True Right ascension
08h 35m 49s
True Declination
0° 00' 00"
Sunlit
Object was in partial shadow at epoch
Visualization orbit readout
Latitude
Unknown
Longitude
Unknown
Altitude
Unknown
Speed
Unknown
Apparent Right ascension
Unknown
Apparent Declination
Unknown
Sunlit
N/A
Visualization observer readout
Local Sidereal Time
13:56:42
Azimuth
Unknown
Elevation
Unknown
Doppler factor
Unknown
Orbital elements
Apogee altitude
11,322.451 km
Perigee altitude
319.28 km
Semi-major axis
12,199.003 km
Eccentricity
0.45099
Inclination
49.6829°
RAAN
128.9572°
Arg. of periapsis
79.4711°
True anomaly
280.61412°
Mean anomaly
326.8359°
Eccentric anomaly
305.90643°
Mean motion
1.61086 °/min
Orbital period
223.48 mins
BSTAR
0.0003826
Loading maneuver chart data...
Computing Atmospheric mass density...
Loading historical data...
Loading historical data...
Loading historical data...
Loading historical data...
Loading historical data...
Loading historical data...
Loading historical data...
Other satellites on launch #59 in the year 2011 (2011-10-19 UTC)

Documentation

Showing up to 5 results
|